Location: Alincthun
(50.7310°N, 1.8022°E)
Time: 11:43:43
(UTC+00:00)

USA 116 - Pass Details

Date: 17 February 2020
Orbit: 405 x 834 km, 97.9° (Epoch: 18 November)

Event Time Altitude Azimuth Distance (km) Brightness Sun altitude
Rises 05:43:46 0° 179° (S) 2,414 7.1 -13.0°
Reaches altitude 10° 05:45:53 10° 187° (S) 1,515 5.9 -12.7°
Maximum altitude 05:48:56 41° 260° (W) 611 3.5 -12.2°
Drops below altitude 10° 05:51:54 10° 333° (NNW) 1,478 5.6 -11.7°
Sets 05:53:57 0° 340° (NNW) 2,347 6.7 -11.4°
